Wind_Speed
14 13 11 11 14 17 16 14 16 13 15 16 19 24 23 21 19 15 12 15 19 23 26 31 30 24 13 17 15 13 11 13 14 14 14 11 9 8 10 10 9 8 8 9 9 9 8 9 11
14 13 12 12 14 18 17 14 17 13 15 16 22 25 22 19 16 18 18 20 26 28 28 27 23 20 15 13 16 16 14 14 14 15 15 15 13 9 8 9 8 8 9 10 8 8 8 9 10
13 13 13 13 14 19 17 17 17 16 18 20 21 21 20 15 19 21 21 25 25 24 22 21 17 15 16 17 17 15 15 15 16 16 14 13 12 8 8 8 7 8 8 9 9 9 9 9 8
12 13 12 13 15 19 21 20 17 14 18 19 22 26 24 21 21 22 22 20 17 20 20 22 21 18 16 17 17 17 17 16 18 17 14 11 11 9 9 10 9 9 9 8 8 7 8 9 10
13 12 12 13 16 23 25 22 22 21 22 24 24 19 26 24 23 22 20 17 16 20 23 23 24 21 20 17 18 17 18 18 18 16 14 11 11 10 10 10 11 11 10 7 6 8 10 10 10
14 14 13 13 18 24 28 26 23 25 22 25 26 23 24 22 22 20 21 15 18 20 23 22 20 19 18 17 18 18 20 19 19 16 14 12 11 9 9 11 12 11 11 8 7 7 9 8 7
14 13 14 15 19 25 32 29 28 28 26 27 24 23 21 19 17 18 18 20 28 19 22 29 29 22 25 20 20 19 21 19 17 15 13 11 11 10 10 12 13 13 12 8 7 5 6 5 6
16 12 14 16 18 26 33 35 33 33 33 28 26 25 22 13 11 11 17 23 19 20 24 29 26 24 21 19 19 23 21 17 16 15 13 11 11 10 11 12 12 13 11 8 6 6 4 3 5
22 14 14 17 19 26 34 36 36 35 34 31 26 25 21 14 14 15 15 12 11 16 14 16 22 21 22 18 21 21 18 17 15 14 14 12 11 11 12 12 12 11 8 7 6 5 6 3 4
29 20 17 18 22 26 37 34 38 37 34 30 24 23 21 19 18 14 10 14 13 15 18 25 23 23 20 21 20 17 17 17 15 13 15 13 12 13 13 12 12 10 9 9 8 7 6 6 5
32 26 22 21 20 24 34 34 38 35 39 33 28 25 21 22 21 16 14 19 20 21 21 23 25 20 22 20 18 15 15 16 14 13 15 14 14 14 14 13 12 12 12 12 11 11 9 8 8
36 29 26 23 25 22 22 32 35 36 38 38 32 24 17 17 23 20 18 24 22 24 26 27 26 24 21 20 17 16 15 15 13 13 14 14 15 15 15 14 14 15 14 15 13 13 13 13 11
39 36 36 31 28 24 24 23 33 33 31 39 34 26 20 17 21 24 21 27 27 27 28 29 28 25 21 20 17 16 16 15 15 15 15 15 16 16 16 16 16 17 18 18 16 16 16 16 16
41 39 39 35 31 28 27 26 35 22 29 37 34 30 22 21 24 27 25 24 29 32 32 34 27 24 21 21 18 17 17 16 15 16 15 16 16 15 16 17 18 18 19 19 18 18 17 17 17
46 46 44 39 34 33 32 34 30 20 29 34 34 33 31 27 30 28 30 28 27 32 31 29 27 25 24 25 21 19 18 19 19 19 18 17 17 17 18 19 20 21 21 21 21 20 19 18 17
52 53 50 36 36 35 37 38 30 27 31 35 38 41 41 34 33 29 27 28 31 33 28 28 29 29 27 28 26 21 21 21 20 20 20 19 19 18 19 19 20 20 21 21 22 21 20 18 19
56 55 49 33 32 37 41 44 33 36 36 36 37 40 43 44 35 33 23 26 29 35 32 31 32 32 31 27 24 23 21 23 22 21 21 20 19 19 19 20 21 21 23 23 23 24 23 23 24
57 56 48 45 35 41 42 47 39 40 41 42 42 42 40 41 38 32 28 22 27 36 37 35 32 30 29 28 26 24 25 26 23 22 21 20 21 21 22 23 23 24 25 28 28 28 27 27 29
57 57 52 48 42 42 44 49 46 42 44 42 46 46 45 41 37 40 31 25 26 36 37 37 35 34 31 29 27 26 28 26 21 23 24 24 24 23 24 26 27 28 30 32 32 31 32 34 34
61 57 48 51 42 45 49 51 55 53 45 43 46 48 47 44 40 36 35 29 26 32 37 39 38 33 29 29 28 28 30 27 25 25 26 27 26 27 28 28 30 30 31 33 34 34 36 37 37
54 52 51 49 46 46 47 55 52 54 51 45 46 48 49 46 41 34 34 30 31 30 31 35 33 31 30 29 30 29 31 29 28 27 27 26 28 29 29 30 31 33 33 35 36 38 39 40 40
57 53 54 53 55 48 42 55 49 51 48 47 43 47 48 48 43 37 33 34 33 33 31 29 27 31 31 32 32 31 32 29 27 27 28 27 29 31 32 33 34 36 37 39 40 42 42 42 44
54 56 57 57 59 55 46 56 50 49 45 41 40 45 44 45 39 41 34 32 34 34 33 32 32 31 31 34 34 35 32 31 30 30 31 32 33 34 35 37 38 38 39 40 41 43 45 47 49
49 56 60 60 60 62 47 51 46 48 37 30 31 43 41 35 39 39 39 32 34 38 39 36 33 32 33 34 35 35 36 37 36 36 34 34 35 38 39 39 40 41 42 43 45 47 48 49 50
48 46 50 56 60 55 54 50 50 34 28 19 25 37 38 39 37 40 35 33 37 37 37 36 32 34 36 38 38 40 42 42 43 40 39 38 38 40 39 40 42 44 45 47 48 49 49 51 54
66 60 54 52 56 52 56 51 41 41 40 25 23 22 37 42 41 35 36 36 37 39 37 36 34 37 40 43 44 47 45 44 43 41 41 42 40 41 41 43 45 47 48 48 50 52 54 57 59
64 67 58 59 57 59 53 53 50 42 37 34 33 32 32 35 37 35 38 40 37 38 37 37 38 39 42 46 47 47 47 45 42 43 45 45 44 43 43 45 46 48 48 49 53 56 57 59 59
64 55 56 59 58 57 50 52 45 41 41 37 30 25 29 34 38 36 36 40 39 38 39 38 37 39 42 46 47 51 54 54 49 44 48 47 47 45 45 45 45 47 50 54 55 57 58 55 55
69 66 64 57 58 49 47 44 42 36 37 37 31 31 29 33 32 32 36 38 40 41 42 40 41 41 42 43 47 49 45 43 49 48 48 47 47 45 42 45 49 51 53 54 55 55 54 54 56
71 64 60 63 63 64 60 49 44 42 39 33 36 36 33 34 38 39 38 39 43 45 45 40 41 42 43 46 47 50 45 46 49 49 50 48 45 43 47 50 51 51 52 53 51 52 54 57 60
Wind_Direction
262 252 252 253 251 253 257 256 256 249 218 220 224 223 230 247 253 281 281 281 285 285 291 294 292 296 299 304 305 320 334 332 330 333 342 348 351 333 326 332 332 332 330 330 334 336 337 346 350
261 252 243 240 246 258 258 253 252 237 210 207 210 216 228 242 262 273 281 289 290 278 281 279 278 279 289 297 301 310 318 325 325 320 330 338 341 341 338 344 351 354 357 354 354 355 356 357 358
261 254 240 233 236 253 262 255 250 232 211 209 210 214 225 236 248 268 278 279 287 282 271 260 265 275 270 280 289 298 306 311 311 308 312 323 325 337 346 345 347 348 347 360 8 27 21 13 9
264 258 243 233 233 245 248 256 255 236 223 215 208 216 223 238 250 260 276 292 283 270 267 255 254 258 261 275 281 291 299 305 301 295 299 314 317 322 334 334 337 337 340 348 351 18 20 17 14
259 256 247 235 231 240 250 251 251 240 233 237 239 246 235 241 254 270 269 296 282 263 267 265 256 249 253 267 280 289 298 300 294 289 290 302 305 317 323 323 326 328 327 332 345 12 7 20 17
278 258 249 244 234 242 251 252 248 249 244 248 249 259 254 258 265 266 270 279 292 273 257 243 241 252 257 269 279 284 290 295 295 288 283 285 297 307 311 314 318 315 314 323 347 358 9 2 355
291 278 257 251 241 242 251 251 250 251 248 250 250 264 268 259 269 268 281 287 293 263 241 243 253 257 263 260 277 284 286 291 287 275 270 279 288 294 303 306 310 312 315 321 334 335 355 349 5
288 290 276 255 247 241 247 255 250 253 254 254 259 278 266 253 242 262 276 288 260 238 227 244 244 246 250 261 277 278 278 281 275 267 262 261 267 277 287 292 300 306 311 314 312 326 319 342 348
280 278 284 259 243 240 246 251 259 260 258 257 261 262 267 235 235 252 278 248 234 231 226 230 226 245 255 270 272 270 274 269 265 266 262 259 261 264 270 275 276 276 278 281 287 294 294 302 317
277 276 273 278 262 244 251 253 258 265 269 266 262 266 276 255 243 255 238 204 207 218 223 231 239 248 265 269 263 265 265 263 259 261 261 262 261 261 261 261 258 256 253 245 245 251 260 271 283
272 268 269 272 271 261 257 261 262 271 272 271 272 275 280 265 243 241 240 213 209 217 232 243 249 262 264 258 258 259 263 261 259 258 259 263 257 255 255 255 251 248 246 245 246 245 244 257 266
268 264 266 265 270 278 264 264 270 267 272 274 274 274 273 286 240 236 233 219 222 225 232 242 250 256 259 256 253 254 253 256 255 256 251 252 253 252 255 253 251 250 247 248 250 247 248 241 243
266 264 266 263 266 272 272 262 264 265 274 274 274 273 269 263 256 239 233 229 235 228 238 243 248 254 254 254 248 247 246 246 248 250 249 251 251 253 255 257 257 257 257 253 253 255 257 263 267
260 259 263 270 255 264 270 262 258 272 269 272 272 272 255 259 261 240 240 241 235 246 242 247 250 248 248 245 240 240 246 250 247 244 247 252 259 263 269 272 271 272 273 272 271 269 269 270 274
255 259 264 268 257 255 265 261 268 259 255 262 266 268 261 253 252 236 236 235 239 240 238 241 243 241 237 236 239 241 243 247 251 250 248 251 256 264 267 268 274 277 275 273 272 272 273 274 280
252 258 261 270 263 253 258 263 264 264 251 251 255 261 263 256 255 242 231 221 224 236 237 238 239 238 237 236 239 243 246 251 254 256 258 256 259 262 266 267 267 272 276 276 275 275 275 279 283
255 260 263 265 264 257 255 260 260 262 260 255 257 258 260 262 258 258 238 217 226 235 236 234 237 238 238 241 243 241 241 248 251 254 256 255 259 258 257 257 260 263 263 263 262 263 266 275 281
258 266 266 264 259 256 256 249 252 254 255 258 261 263 256 259 259 260 253 229 223 229 233 233 236 241 241 243 246 251 252 249 245 254 256 257 258 261 262 261 261 262 261 260 261 263 268 277 283
260 260 264 261 258 260 258 250 250 250 249 256 259 257 261 254 256 258 255 244 226 225 231 237 235 236 238 241 244 248 251 260 255 254 259 263 265 265 264 263 264 265 264 264 266 265 270 275 278
258 260 260 261 260 261 256 253 250 250 253 253 257 254 256 255 250 255 255 249 239 228 229 234 241 238 236 239 241 247 252 257 258 256 259 266 271 271 270 267 267 268 268 268 271 271 270 271 272
252 256 260 265 265 260 263 252 253 247 248 252 251 249 251 253 249 248 251 249 247 246 232 231 238 249 250 246 245 247 251 254 256 261 262 266 270 272 274 276 275 275 272 271 272 274 276 277 276
250 255 260 261 262 260 256 258 245 247 244 247 244 243 247 247 248 245 244 248 246 249 250 247 243 244 250 250 250 249 250 252 256 259 265 267 267 270 273 273 273 275 275 275 275 276 277 278 280
258 259 258 257 258 259 245 251 249 246 241 247 246 243 246 250 248 245 241 245 249 251 246 242 241 241 241 246 251 254 255 255 255 255 257 260 265 269 271 272 273 274 275 276 276 276 279 281 284
245 250 253 252 252 254 253 249 248 253 257 254 254 247 245 249 246 247 244 242 247 250 248 241 247 246 248 249 252 257 258 259 258 255 256 262 268 270 271 272 272 272 274 276 278 280 281 283 285
247 244 248 250 249 257 257 249 256 260 250 260 244 239 242 242 241 243 243 239 242 244 245 249 244 245 248 250 253 252 255 259 255 257 264 271 271 271 273 273 274 275 276 277 279 282 284 286 288
254 251 250 258 257 262 261 255 247 257 262 253 246 237 238 246 246 242 238 231 234 239 245 251 251 250 249 249 251 255 256 254 261 266 271 273 271 273 276 276 275 276 280 283 285 286 288 289 289
249 248 256 257 258 259 253 255 257 256 251 248 243 246 241 246 256 245 233 236 233 240 243 246 251 248 249 253 254 256 259 261 265 269 270 272 272 274 275 275 277 280 282 283 284 287 289 289 290
250 254 252 247 253 254 251 253 254 256 257 254 251 243 248 247 248 250 243 240 240 242 245 246 246 250 250 253 261 258 257 265 268 268 275 274 274 273 274 276 279 280 282 284 288 288 289 291 291
244 242 244 246 247 250 253 245 247 261 269 258 251 244 243 250 249 254 248 244 244 242 247 248 249 250 249 254 257 257 260 264 267 268 271 274 275 272 274 279 281 283 286 288 288 289 290 290 290
253 248 249 248 248 250 256 246 247 258 263 266 265 256 255 242 245 247 250 252 255 255 255 251 252 251 251 250 250 254 255 259 262 270 270 272 272 275 281 283 284 286 285 285 288 289 289 290 291
Height
5837 5837 5839 5841 5843 5839 5840 5842 5841 5843 5846 5848 5849 5851 5853 5855 5856 5859 5858 5858 5859 5859 5859 5859 5859 5861 5862 5862 5862 5862 5861 5861 5861 5861 5862 5863 5863 5862 5861 5860 5859 5858 5858 5858 5858 5858 5857 5856 5855
5834 5835 5836 5837 5839 5836 5838 5839 5838 5841 5843 5844 5847 5850 5852 5853 5853 5853 5853 5854 5855 5856 5857 5857 5858 5859 5860 5861 5860 5861 5861 5861 5861 5860 5860 5860 5860 5860 5861 5860 5859 5857 5857 5857 5857 5857 5857 5856 5855
5831 5832 5834 5834 5835 5834 5836 5836 5837 5840 5841 5843 5846 5847 5848 5849 5849 5848 5848 5849 5850 5852 5854 5855 5856 5857 5858 5858 5859 5860 5860 5860 5860 5860 5859 5859 5860 5859 5859 5859 5858 5856 5856 5856 5856 5856 5856 5855 5854
5827 5830 5831 5832 5832 5831 5831 5832 5836 5839 5840 5841 5843 5844 5844 5843 5843 5844 5845 5845 5846 5848 5851 5853 5854 5854 5855 5857 5858 5858 5858 5858 5859 5858 5859 5858 5859 5857 5857 5856 5856 5855 5855 5854 5855 5855 5855 5854 5853
5825 5827 5827 5829 5830 5827 5827 5829 5832 5834 5837 5838 5840 5843 5842 5840 5840 5841 5841 5842 5844 5846 5848 5851 5852 5852 5853 5855 5856 5857 5857 5856 5856 5856 5856 5856 5857 5855 5855 5855 5854 5854 5853 5853 5853 5854 5854 5853 5852
5823 5824 5825 5826 5826 5824 5823 5825 5828 5828 5832 5835 5837 5838 5839 5839 5838 5838 5838 5838 5840 5843 5846 5848 5849 5851 5851 5852 5854 5855 5855 5854 5854 5854 5854 5854 5854 5854 5854 5854 5854 5854 5853 5853 5853 5854 5853 5852 5852
5821 5821 5822 5823 5823 5821 5819 5822 5823 5825 5826 5828 5832 5834 5836 5836 5835 5835 5835 5835 5835 5838 5842 5844 5846 5849 5849 5851 5852 5853 5853 5851 5852 5852 5852 5853 5853 5852 5852 5853 5852 5852 5852 5852 5852 5853 5852 5851 5850
5818 5819 5819 5818 5819 5818 5816 5816 5818 5821 5823 5824 5827 5829 5831 5833 5832 5832 5833 5832 5831 5834 5838 5841 5843 5845 5847 5847 5849 5850 5849 5850 5851 5851 5851 5850 5850 5850 5850 5851 5851 5851 5851 5851 5851 5852 5851 5850 5850
5815 5816 5816 5814 5814 5814 5811 5813 5813 5816 5821 5822 5824 5825 5829 5830 5829 5830 5830 5829 5830 5831 5834 5838 5841 5844 5845 5844 5846 5847 5847 5848 5848 5848 5848 5847 5848 5848 5849 5849 5849 5849 5848 5849 5849 5849 5849 5848 5848
5809 5813 5811 5810 5810 5809 5805 5810 5809 5811 5814 5819 5822 5823 5827 5828 5827 5827 5827 5828 5830 5832 5834 5837 5839 5841 5842 5843 5845 5844 5843 5844 5844 5844 5845 5845 5846 5846 5846 5847 5847 5847 5847 5847 5846 5846 5846 5847 5846
5803 5807 5806 5806 5804 5806 5804 5807 5806 5808 5809 5814 5817 5818 5822 5824 5824 5824 5825 5826 5827 5829 5832 5834 5836 5839 5841 5841 5841 5840 5840 5841 5840 5841 5842 5843 5843 5843 5843 5844 5844 5844 5844 5844 5843 5843 5843 5843 5844
5796 5800 5801 5802 5799 5802 5804 5800 5803 5803 5806 5809 5812 5815 5820 5820 5820 5821 5822 5824 5825 5827 5828 5830 5833 5836 5837 5838 5837 5837 5836 5837 5837 5838 5839 5840 5840 5840 5840 5840 5840 5841 5840 5841 5840 5840 5840 5839 5839
5788 5793 5793 5796 5795 5796 5798 5798 5794 5797 5803 5800 5805 5809 5813 5817 5817 5817 5817 5820 5822 5824 5825 5826 5829 5832 5832 5834 5833 5834 5833 5833 5834 5835 5836 5837 5838 5837 5836 5836 5837 5838 5838 5838 5837 5837 5837 5837 5838
5779 5783 5786 5788 5790 5788 5789 5792 5786 5798 5797 5793 5795 5800 5805 5809 5812 5811 5813 5815 5817 5818 5821 5823 5825 5827 5828 5829 5829 5829 5830 5831 5832 5832 5833 5834 5835 5834 5834 5834 5834 5835 5835 5835 5835 5834 5834 5833 5833
5769 5772 5775 5780 5783 5783 5781 5782 5787 5793 5789 5787 5788 5791 5794 5800 5802 5807 5809 5811 5812 5813 5814 5819 5820 5821 5822 5824 5824 5825 5826 5827 5828 5828 5829 5830 5831 5831 5831 5830 5830 5831 5831 5831 5831 5830 5830 5829 5829
5761 5761 5765 5776 5776 5778 5775 5774 5782 5784 5783 5780 5781 5782 5784 5790 5793 5799 5803 5806 5807 5808 5811 5814 5815 5815 5817 5818 5819 5820 5821 5822 5823 5824 5826 5826 5826 5825 5826 5826 5825 5826 5827 5827 5827 5826 5826 5824 5824
5750 5750 5759 5769 5769 5769 5767 5765 5776 5774 5774 5773 5774 5775 5777 5779 5784 5789 5796 5800 5803 5803 5805 5807 5809 5810 5811 5811 5812 5814 5816 5817 5817 5819 5820 5821 5821 5820 5820 5820 5820 5821 5821 5820 5820 5819 5819 5818 5817
5743 5746 5752 5756 5760 5756 5754 5753 5763 5766 5766 5765 5766 5768 5769 5769 5777 5783 5787 5792 5796 5797 5798 5800 5803 5805 5806 5808 5808 5809 5810 5812 5812 5813 5814 5815 5815 5815 5815 5814 5814 5814 5815 5814 5814 5814 5813 5813 5811
5735 5736 5740 5744 5750 5749 5746 5744 5749 5756 5755 5757 5759 5760 5761 5763 5768 5773 5779 5784 5788 5791 5793 5793 5795 5797 5799 5801 5802 5802 5804 5806 5807 5808 5808 5808 5809 5809 5809 5809 5807 5808 5808 5807 5808 5808 5808 5807 5805
5723 5726 5729 5730 5741 5736 5735 5732 5735 5740 5745 5749 5747 5749 5752 5756 5759 5764 5770 5775 5779 5783 5785 5786 5787 5791 5792 5794 5795 5797 5796 5799 5801 5802 5801 5800 5800 5801 5802 5801 5800 5801 5801 5801 5800 5800 5800 5799 5798
5711 5713 5717 5721 5725 5723 5721 5717 5723 5728 5731 5737 5737 5739 5741 5746 5750 5756 5761 5765 5768 5773 5778 5780 5781 5781 5783 5785 5787 5790 5791 5792 5794 5794 5794 5794 5794 5794 5794 5793 5793 5793 5792 5792 5791 5791 5790 5790 5789
5696 5705 5707 5710 5709 5711 5718 5697 5710 5712 5719 5723 5728 5728 5732 5737 5742 5747 5752 5755 5759 5762 5765 5769 5773 5773 5776 5778 5780 5782 5783 5785 5786 5785 5786 5787 5787 5787 5786 5785 5785 5785 5785 5783 5783 5783 5781 5780 5778
5694 5693 5695 5697 5695 5695 5701 5693 5694 5704 5709 5716 5719 5720 5725 5729 5737 5739 5743 5748 5750 5753 5756 5759 5762 5764 5768 5770 5773 5774 5774 5776 5776 5776 5777 5779 5779 5779 5778 5778 5777 5776 5776 5775 5774 5772 5771 5769 5767
5675 5676 5677 5679 5684 5678 5691 5695 5671 5691 5704 5711 5713 5712 5717 5722 5727 5730 5733 5737 5741 5743 5746 5748 5752 5756 5758 5760 5763 5765 5767 5766 5767 5768 5769 5769 5769 5769 5769 5768 5767 5766 5765 5764 5763 5761 5759 5757 5755
5661 5663 5666 5668 5668 5666 5676 5682 5669 5689 5694 5701 5702 5701 5707 5711 5716 5720 5725 5729 5732 5735 5738 5738 5743 5745 5747 5750 5752 5753 5754 5757 5758 5758 5758 5759 5759 5759 5758 5758 5758 5756 5755 5753 5751 5749 5746 5743 5740
5650 5653 5656 5656 5660 5666 5665 5663 5672 5681 5685 5691 5695 5696 5697 5701 5705 5711 5717 5720 5724 5728 5729 5730 5734 5737 5739 5740 5742 5743 5744 5745 5746 5748 5749 5749 5748 5748 5748 5748 5747 5745 5743 5741 5739 5736 5734 5730 5726
5638 5635 5654 5649 5650 5651 5653 5654 5657 5668 5674 5678 5684 5689 5691 5694 5695 5700 5706 5712 5716 5720 5722 5723 5725 5727 5728 5729 5731 5732 5733 5735 5737 5738 5739 5739 5738 5737 5737 5736 5734 5733 5732 5730 5728 5725 5721 5718 5714
5623 5637 5631 5630 5636 5638 5641 5643 5649 5657 5664 5673 5677 5681 5682 5683 5687 5690 5696 5702 5706 5709 5712 5714 5716 5718 5718 5720 5722 5723 5724 5726 5727 5727 5728 5728 5727 5727 5725 5725 5724 5722 5720 5718 5715 5712 5708 5703 5699
5605 5609 5614 5620 5625 5632 5630 5632 5639 5649 5653 5659 5668 5673 5675 5677 5679 5682 5685 5690 5694 5698 5701 5703 5705 5707 5709 5710 5711 5712 5714 5716 5717 5718 5717 5717 5717 5715 5715 5714 5712 5710 5708 5704 5701 5697 5693 5689 5686
5586 5595 5601 5606 5615 5618 5626 5619 5633 5637 5643 5649 5655 5661 5665 5669 5670 5672 5675 5678 5682 5686 5689 5691 5694 5697 5698 5700 5701 5703 5706 5706 5706 5707 5706 5706 5705 5705 5704 5703 5700 5697 5693 5691 5687 5683 5679 5675 5672